Location: Northam
(31.6525°S, 116.6655°E)
Time: 03:58:30
(UTC+08:00)

STARLINK-1785 - Pass Details

Date: 17 January 2021
Orbit: 545 x 549 km, 53.1° (Epoch: 28 February)

Event Time Altitude Azimuth Distance (km) Brightness Sun altitude
Rises 21:13:38 0° 230° (SW) 2,728 8.8 -20.7°
Reaches altitude 10° 21:15:57 10° 236° (WSW) 1,830 7.4 -21.1°
Maximum altitude 21:19:55 44° 308° (NW) 768 4.3 -21.7°
Enters shadow 21:20:25 42° 330° (NNW) 795 4.2 -21.8°
